Regional Weather Roundup
Issued by NWS Little Rock, AR

Home | Current Version | Previous Version | Text Only | Print | Product List | Glossary On
Versions: 1 2 3 4 5 6 7 8 9 10 11 12 13 14 15 16 17 18 19 20 21 22 23 24 25 26 27 28 29 30 31 32 33 34 35 36 37 38 39 40 41 42 43 44 45 46 47 48 49
000
ASUS44 KLZK 181605
RWRLZK

WEATHER ROUNDUP FOR ARKANSAS
NATIONAL WEATHER SERVICE LITTLE ROCK AR
1100 AM CDT THU SEP 18 2014

NOTE: "FAIR" INDICATES FEW OR NO CLOUDS BELOW 12,000 FEET WITH NO
SIGNIFICANT WEATHER AND/OR OBSTRUCTIONS TO VISIBILITY.

ARZ001-003-010-029-181700-
NORTHWEST ARKANSAS

CITY           SKY/WX    TMP DP  RH WIND       PRES   REMARKS
FAYETTEVILLE   CLOUDY    67  62  84 S22       29.92F
FORT SMITH     CLOUDY    74  63  68 SW5       29.97F
HARRISON       CLOUDY    66  65  96 SE12      30.00S
BENTONVILLE    CLOUDY    72  63  73 W9        29.93S
ROGERS         CLOUDY    74  60  61 NE8       29.96R
SILOAM SPGS    CLOUDY    72  61  68 CALM      29.95S
HIGHFILL       CLOUDY    70  63  78 SW8       29.92F
SPRINGDALE     PTSUNNY   75  59  57 S6        29.94F
$$

ARZ004-005-016-181700-
NORTH CENTRAL ARKANSAS

CITY           SKY/WX    TMP DP  RH WIND       PRES   REMARKS
BATESVILLE     CLOUDY    66  63  88 NE6       30.00S
FLIPPIN        CLOUDY    64  61  88 E5        30.02R
MTN HOME       FOG       63  63 100 E5        30.01R VSB 1/2
$$

ARZ040-041-181700-
WEST CENTRAL ARKANSAS

CITY           SKY/WX    TMP DP  RH WIND       PRES   REMARKS
MENA           MOSUNNY   82  68  61 CALM      30.00S HX  85
MOUNT IDA      MOSUNNY   81  68  64 CALM      29.96S
$$

ARZ009-017-025-026-028-181700-
NORTHEAST ARKANSAS

CITY           SKY/WX    TMP DP  RH WIND       PRES   REMARKS
CORNING          N/A     64  63  94 NE6       30.04R FOG
JONESBORO      CLOUDY    67  64  90 NE8       30.00S
NEWPORT        CLOUDY    69  64  84 NE15G21   30.00F
WALNUT RIDGE   CLOUDY    66  61  82 NE10      30.01S
BLYTHEVILLE    LGT RAIN  65  64  97 VRB3      30.02R FOG
$$

ARZ022-023-033-042-044-181700-
CENTRAL ARKANSAS

CITY           SKY/WX    TMP DP  RH WIND       PRES   REMARKS
LITTLE ROCK    PTSUNNY   75  65  70 VRB5      29.97F
N LITTLE ROCK  PTSUNNY   71  68  88 N7        29.97F
SEARCY         CLOUDY    72  66  81 NE6       29.99
HOT SPRINGS    PTSUNNY   78  70  76 CALM      29.97S
RUSSELLVILLE   CLOUDY    75  68  78 CALM      29.96F HAZE
CLINTON        CLOUDY    72  68  88 CALM      30.00S FOG
$$

ARZ036-181700-
EAST ARKANSAS

CITY           SKY/WX    TMP DP  RH WIND       PRES   REMARKS
WEST MEMPHIS   PTSUNNY   76  68  76 E6        29.96S
$$

ARZ050-053-066-070-073-181700-
SOUTHWEST ARKANSAS

CITY           SKY/WX    TMP DP  RH WIND       PRES   REMARKS
ARKADELPHIA    FAIR      80  74  82 NE7       29.96S
CAMDEN         PTSUNNY   84  72  65 NE3       29.94F HX  89
TEXARKANA      PTSUNNY   82  74  76 CALM      29.94S HX  88
EL DORADO      CLOUDY    84  73  69 VRB3      29.95S HX  90
DE QUEEN       PTSUNNY   77  71  82 NE7       29.95S
$$

ARZ056-057-069-181700-
SOUTHEAST ARKANSAS

CITY           SKY/WX    TMP DP  RH WIND       PRES   REMARKS
PINE BLUFF     CLOUDY    76  70  82 N9        29.96S
STUTTGART      MOSUNNY   73  68  83 N6        29.97F
MONTICELLO     CLOUDY    86  71  60 W3        29.94F HX  91

$$





USA.gov is the U.S. government's official web portal to all federal, state and local government web resources and services.